Change the Weather History Date:

Wednesday, November 14, 2012

  Actual Average Record
Temperature  
Mean Temperature 34 °F -  
Max Temperature 35 °F 43 °F 69 °F (1999)
Min Temperature 32 °F 23 °F 15 °F (2014)
Degree Days  
Heating Degree Days 32    
Moisture  
Dew Point 31 °F    
Average Humidity 93    
Maximum Humidity 100    
Minimum Humidity 81    
Precipitation  
Precipitation 0.00 in - - ()
Sea Level Pressure  
Sea Level Pressure 30.24 in    
Wind  
Wind Speed 3 mph (NNW)    
Max Wind Speed 8 mph    
Max Gust Speed -    
Visibility 7 miles    
Events Snow    
Averages and records for this station are not official NWS values.
T = Trace of Precipitation, MM = Missing Value Source: NWS Daily Summary

Daily Weather History Graph

Daily Weather History Graph

Search for Another Location

Airport or City:

Trip Planner

Search our weather history database for the weather conditions in past years. The results will help you decide how hot, cold, wet, or windy it might be!

Date:

Astronomy

Nov. 14, 2012 Rise Set
Actual Time 7:30 AM MST 5:12 PM MST
Civil Twilight 6:59 AM MST 5:43 PM MST
Nautical Twilight 6:24 AM MST 6:18 PM MST
Astronomical Twilight 5:51 AM MST 6:51 PM MST
Moon 8:26 AM MST (11/14) 6:03 PM MST (11/14)
Length of Visible Light 10h 44m
Length of Day
9h 42m
New Moon, 1% of the Moon is Illuminated
Nov 14
New Moon
Nov 20
First Quarter
Nov 28
Full
Dec 6
Last Quarter
Dec 13
New

Hourly Weather History & Observations

Time (MST) Temp. Windchill Dew Point Humidity Pressure Visibility Wind Dir Wind Speed Gust Speed Precip Events Conditions
12:15 AM 32.0 °F 27.5 °F 30.2 °F 93% 30.23 in 10.0 mi NW 4.6 mph - N/A   Mostly Cloudy
12:35 AM 32.0 °F 28.7 °F 30.2 °F 93% 30.23 in 10.0 mi NNW 3.5 mph - N/A   Clear
12:55 AM 32.0 °F 26.4 °F 30.2 °F 93% 30.23 in 10.0 mi NW 5.8 mph - N/A   Clear
1:15 AM 32.0 °F 25.6 °F 30.2 °F 93% 30.22 in 10.0 mi NW 6.9 mph - N/A   Clear
1:35 AM 32.0 °F 24.8 °F 30.2 °F 93% 30.22 in 10.0 mi NW 8.1 mph - N/A   Mostly Cloudy
1:55 AM 32.0 °F 26.4 °F 30.2 °F 93% 30.21 in 10.0 mi NNW 5.8 mph - N/A   Overcast
2:15 AM 32.0 °F - 30.2 °F 93% 30.21 in 10.0 mi Calm Calm - N/A   Overcast
2:35 AM 32.0 °F - 30.2 °F 93% 30.22 in 10.0 mi Calm Calm - N/A   Mostly Cloudy
2:55 AM 32.0 °F - 30.2 °F 93% 30.22 in 10.0 mi Calm Calm - N/A   Overcast
3:15 AM 32.0 °F - 30.2 °F 93% 30.21 in 10.0 mi Calm Calm - N/A   Overcast
3:35 AM 32.0 °F - 32.0 °F 100% 30.21 in 4.0 mi Calm Calm - N/A Snow Light Snow
3:55 AM 32.0 °F - 32.0 °F 100% 30.21 in 1.8 mi Calm Calm - N/A Snow Light Snow
4:15 AM 32.0 °F - 32.0 °F 100% 30.21 in 1.2 mi Calm Calm - N/A Snow Light Snow
4:35 AM 32.0 °F - 32.0 °F 100% 30.20 in 1.0 mi Calm Calm - N/A Snow Light Snow
4:55 AM 32.0 °F - 32.0 °F 100% 30.20 in 2.0 mi Calm Calm - N/A Snow Light Snow
5:15 AM 32.0 °F 28.7 °F 32.0 °F 100% 30.20 in 1.5 mi NW 3.5 mph - N/A Snow Light Snow
5:35 AM 32.0 °F 28.7 °F 32.0 °F 100% 30.20 in 3.0 mi NW 3.5 mph - N/A Snow Light Snow
5:55 AM 32.0 °F 28.7 °F 32.0 °F 100% 30.20 in 3.0 mi NW 3.5 mph - N/A Snow Light Snow
6:47 AM 32.0 °F - 32.0 °F 100% 30.20 in 2.0 mi Calm Calm - N/A Snow Light Snow
7:47 AM 32.0 °F 28.7 °F 32.0 °F 100% 30.21 in 2.0 mi ESE 3.5 mph - N/A   Overcast
8:47 AM 32.0 °F - 32.0 °F 100% 30.23 in 2.0 mi Calm Calm - N/A   Overcast
9:47 AM 32.0 °F - 32.0 °F 100% 30.23 in 2.0 mi Calm Calm - N/A   Overcast
10:47 AM 33.8 °F - 32.0 °F 93% 30.23 in 2.0 mi Calm Calm - N/A   Overcast
11:47 AM 33.8 °F - 33.8 °F 100% 30.23 in 5.0 mi Calm Calm - N/A   Overcast
12:48 PM 35.6 °F 31.7 °F 33.8 °F 93% 30.21 in 7.0 mi SE 4.6 mph - N/A   Overcast
1:47 PM 35.6 °F 29.9 °F 33.8 °F 93% 30.21 in 7.0 mi ESE 6.9 mph - N/A   Overcast
2:47 PM 35.6 °F 29.2 °F 33.8 °F 93% 30.21 in 7.0 mi SE 8.1 mph - N/A   Overcast
3:47 PM 35.6 °F 29.2 °F 33.8 °F 93% 30.22 in 7.0 mi ESE 8.1 mph - N/A   Overcast
4:47 PM 35.6 °F - 33.8 °F 93% 30.24 in 7.0 mi Calm Calm - N/A   Overcast
5:47 PM 35.6 °F - 32.0 °F 87% 30.24 in 7.0 mi Calm Calm - N/A   Overcast
6:47 PM 35.6 °F 32.8 °F 32.0 °F 87% 30.25 in 7.0 mi West 3.5 mph - N/A   Overcast
7:55 PM 35.6 °F 31.7 °F 32.0 °F 87% 30.27 in 7.0 mi NNW 4.6 mph - N/A   Overcast
8:47 PM 35.6 °F 31.7 °F 32.0 °F 87% 30.27 in 7.0 mi NNW 4.6 mph - N/A   Overcast
9:47 PM 35.6 °F 32.8 °F 30.2 °F 81% 30.28 in 7.0 mi NNE 3.5 mph - N/A   Overcast
10:15 PM 35.6 °F 31.7 °F 30.2 °F 81% 30.29 in 10.0 mi NE 4.6 mph - N/A   Overcast
10:35 PM 33.8 °F - 30.2 °F 87% 30.29 in 10.0 mi Calm Calm - N/A   Overcast
10:47 PM 35.6 °F - 30.2 °F 81% 30.30 in 7.0 mi Calm Calm - N/A   Overcast
10:55 PM 33.8 °F - 30.2 °F 87% 30.30 in 10.0 mi Calm Calm - N/A   Overcast
11:15 PM 35.6 °F 32.8 °F 30.2 °F 81% 30.30 in 10.0 mi NNW 3.5 mph - N/A   Overcast
11:35 PM 33.8 °F - 30.2 °F 87% 30.30 in 10.0 mi Calm Calm - N/A   Overcast
11:55 PM 33.8 °F 30.8 °F 30.2 °F 87% 30.31 in 10.0 mi North 3.5 mph - N/A   Overcast